Powrót do katalogu

COSMOS 2509

AktywnyNawigacjaPO
NORAD 40922·PAYLOAD·🇷🇺 Russia

Wystrzelony Sep 23, 2015 z Plesetsk Cosmodrome

Loading…

Następne Przeloty (najbliższe 24 godziny)

TLE

ŚwieżeSource: Space-Track

Epoka: Sep 14, 2026, 15:21 UTC

1 40922U 15050C   26257.63990762 -.00000051  00000-0 -44043-3 0  9998
2 40922  82.4923  22.5431 0014448 202.3861 157.6589 12.42886240497993

Śledź COSMOS 2509 w czasie rzeczywistym z AllMySat

Download on the App Store